Overview Statistics Trail Chart Weather Telemetry Raw packets
 

This is the latest recevied weather packets stored in our database for station/object VU3OPX-13. If no packets are shown the sender has not sent any weather packets the latest 10 day(s).

<< 9 10 11 12 13 14 15 >>
Time Temp. Humidity Pressure Rain* Wind** Luminosity Snow
1787901753 27.22° C 67% 1011 hPa 0 mm - - -
1787899966 27.22° C 67% 1011 hPa 0 mm - - -
1787898179 26.67° C 68% 1012 hPa 0 mm - - -
1787896392 26.67° C 68% 1012 hPa 0 mm - - -
1787894604 26.11° C 70% 1012 hPa 0 mm - - -
1787892817 26.11° C 70% 1012 hPa 0 mm - - -
1787891029 25.56° C 74% 1012 hPa 0 mm - - -
1787887666 23.89° C 81% 1012 hPa 0 mm - - -
1787883882 22.22° C 90% 1012 hPa 0 mm - - -
1787882095 22.22° C 90% 1012 hPa 0 mm - - -
1787880307 21.11° C 94% 1011 hPa 0 mm - - -
1787878520 21.11° C 94% 1011 hPa 0 mm - - -
1787876737 21.11° C 92% 1011 hPa 0 mm - - -
1787874946 20.56° C 95% 1011 hPa 0 mm - - -
1787873158 21.11° C 93% 1010 hPa 0 mm - - -
1787871371 21.11° C 93% 1010 hPa 0 mm - - -
1787869584 21.11° C 93% 1010 hPa 0 mm - - -
1787867797 21.11° C 93% 1010 hPa 0 mm - - -
1787866009 21.11° C 95% 1010 hPa 0 mm - - -
1787864222 21.11° C 95% 1010 hPa 0 mm - - -
1787862434 20.56° C 96% 1011 hPa 0 mm - - -
1787860647 21.11° C 96% 1011 hPa 0 mm - - -
1787858860 21.11° C 95% 1012 hPa 0 mm - - -
1787857073 21.11° C 95% 1012 hPa 0 mm - - -
1787855286 21.11° C 95% 1013 hPa 0 mm - - -

* Rain latest hour (hover to see other rain measurements)
** Current wind speed in m/s (hover to see current wind gust speed)